7 * 24
多渠道服务支持
GEESAT-1 01 是一颗由印度尼西亚研制的教育与研究卫星,主要用于地球观测和遥感技术的教学与应用。该卫星由印尼国家航空航天与空间研究机构(LAPAN)与印尼大学合作开发,旨在提升本国在航天科技领域的自主能力。卫星搭载了高分辨率光学传感器,可获取地球表面图像,支持环境监测、农业评估和灾害管理等应用。GEESAT-1 01 于2023年成功发射,标志着印尼在小型卫星研发方面的重要进展,也为区域航天合作提供了新机遇。
中国
(CN)
| 数据来源 | 国际轨道数据 |
| 星历时间: | 2025-10-28T22:34:03+0800 16小时前 查看轨道信息 |
| 半长轴: | 6951.635km |
| 偏心率: | 0.0004532 |
| 轨道倾角: | 49.992° |
| 近地点辐角 | 25.132° |
| 升交点赤经 | 202.145° |
| 平近点角 | 334.984° |
| 近地点: | 570.349km |
| 远地点: | 576.651km |
| 周期: | 96.137分钟 |
| 每日圈数: | 14.978639 |